| time (UTC) | temp C | wind direction | speed KPH | gust KPH | rain 1hr cm | rain 24hr cm | rain mn cm | humidity % | barometer mb |
| 20260506031955 | 12 | 28 | 4.8 | 9.7 | 0.00 | 0.03 | 0.00 | 80 | 1009.8 |
| 20260506031455 | 12 | 14 | 6.4 | 11.3 | 0.00 | 0.03 | 0.00 | 80 | 1009.8 |
| 20260506030955 | 12 | 8 | 6.4 | 12.9 | 0.00 | 0.03 | 0.00 | 80 | 1009.8 |
| 20260506030455 | 12 | 12 | 6.4 | 11.3 | 0.00 | 0.03 | 0.00 | 80 | 1009.8 |
| 20260506025955 | 12 | 359 | 4.8 | 8.0 | 0.00 | 0.03 | 0.00 | 80 | 1009.8 |
| 20260506025455 | 12 | 23 | 6.4 | 9.7 | 0.00 | 0.03 | 0.00 | 81 | 1009.8 |
| 20260506024955 | 12 | 18 | 6.4 | 11.3 | 0.00 | 0.03 | 0.00 | 81 | 1009.8 |
| 20260506024455 | 12 | 22 | 6.4 | 9.7 | 0.00 | 0.03 | 0.00 | 81 | 1009.8 |
| 20260506023955 | 12 | 32 | 6.4 | 11.3 | 0.00 | 0.03 | 0.00 | 81 | 1009.7 |
| 20260506023455 | 12 | 9 | 6.4 | 9.7 | 0.00 | 0.03 | 0.00 | 82 | 1009.7 |
| 20260506022955 | 12 | 56 | 6.4 | 11.3 | 0.00 | 0.05 | 0.00 | 82 | 1009.8 |
| 20260506022455 | 12 | 40 | 6.4 | 11.3 | 0.00 | 0.05 | 0.00 | 82 | 1009.7 |
| 20260506021955 | 12 | 56 | 4.8 | 11.3 | 0.00 | 0.05 | 0.00 | 82 | 1009.7 |
| 20260506021455 | 12 | 37 | 4.8 | 6.4 | 0.00 | 0.05 | 0.00 | 82 | 1009.7 |
| 20260506020955 | 12 | 32 | 4.8 | 8.0 | 0.00 | 0.05 | 0.00 | 82 | 1009.7 |
| 20260506020455 | 12 | 46 | 4.8 | 8.0 | 0.00 | 0.05 | 0.00 | 82 | 1009.8 |
| 20260506015955 | 12 | 32 | 4.8 | 8.0 | 0.00 | 0.05 | 0.00 | 82 | 1009.8 |
| 20260506015455 | 12 | 10 | 4.8 | 8.0 | 0.00 | 0.05 | 0.00 | 83 | 1009.7 |
| 20260506014955 | 12 | 12 | 4.8 | 8.0 | 0.00 | 0.05 | 0.00 | 83 | 1009.7 |
| 20260506014455 | 12 | 359 | 4.8 | 9.7 | 0.00 | 0.05 | 0.00 | 83 | 1009.7 |
| 20260506013955 | 12 | 23 | 4.8 | 8.0 | 0.00 | 0.05 | 0.00 | 83 | 1009.7 |
| 20260506013455 | 12 | 359 | 4.8 | 8.0 | 0.00 | 0.05 | 0.00 | 82 | 1009.8 |
| 20260506012955 | 12 | 4 | 4.8 | 9.7 | 0.00 | 0.05 | 0.00 | 82 | 1009.8 |
| 20260506012455 | 12 | 359 | 4.8 | 12.9 | 0.00 | 0.05 | 0.00 | 82 | 1009.8 |
| 20260506011955 | 12 | 349 | 4.8 | 8.0 | 0.00 | 0.05 | 0.00 | 82 | 1009.8 |
| 20260506011455 | 12 | 324 | 3.2 | 8.0 | 0.00 | 0.05 | 0.00 | 82 | 1009.8 |
| 20260506010955 | 12 | 335 | 3.2 | 8.0 | 0.00 | 0.05 | 0.00 | 82 | 1009.8 |
| 20260506010455 | 12 | 348 | 4.8 | 8.0 | 0.00 | 0.05 | 0.00 | 82 | 1009.9 |
| 20260506005955 | 12 | 341 | 4.8 | 6.4 | 0.00 | 0.05 | 0.00 | 82 | 1009.9 |
| 20260506005455 | 12 | 339 | 4.8 | 11.3 | 0.00 | 0.05 | 0.00 | 82 | 1009.9 |
| 20260506004955 | 12 | 318 | 4.8 | 8.0 | 0.00 | 0.05 | 0.00 | 81 | 1009.9 |
| 20260506004455 | 12 | 318 | 4.8 | 8.0 | 0.00 | 0.05 | 0.00 | 82 | 1009.9 |
| 20260506003955 | 12 | 324 | 4.8 | 8.0 | 0.00 | 0.05 | 0.00 | 81 | 1009.9 |
| 20260506003455 | 12 | 337 | 4.8 | 8.0 | 0.00 | 0.05 | 0.00 | 81 | 1009.9 |
| 20260506002955 | 12 | 328 | 4.8 | 8.0 | 0.00 | 0.05 | 0.00 | 81 | 1010.0 |
| 20260506002455 | 12 | 333 | 4.8 | 9.7 | 0.00 | 0.05 | 0.00 | 81 | 1010.0 |
| 20260506001955 | 12 | 354 | 4.8 | 6.4 | 0.00 | 0.05 | 0.00 | 81 | 1010.1 |
| 20260506001455 | 12 | 338 | 4.8 | 9.7 | 0.00 | 0.05 | 0.00 | 81 | 1010.1 |
| 20260506000955 | 12 | 4 | 4.8 | 9.7 | 0.00 | 0.05 | 0.00 | 81 | 1010.1 |
| 20260506000455 | 12 | 324 | 6.4 | 9.7 | 0.00 | 0.05 | 0.00 | 81 | 1010.1 |
| 20260505235955 | 12 | 316 | 4.8 | 12.9 | 0.00 | 0.05 | 0.00 | 81 | 1010.1 |
| 20260505235455 | 12 | 332 | 4.8 | 8.0 | 0.00 | 0.05 | 0.00 | 80 | 1010.1 |
| 20260505234955 | 12 | 318 | 6.4 | 12.9 | 0.00 | 0.05 | 0.00 | 80 | 1010.1 |
| 20260505234455 | 12 | 314 | 6.4 | 9.7 | 0.00 | 0.05 | 0.00 | 80 | 1010.1 |
| 20260505233955 | 12 | 317 | 6.4 | 9.7 | 0.00 | 0.05 | 0.00 | 80 | 1010.1 |
| 20260505233455 | 12 | 321 | 4.8 | 12.9 | 0.00 | 0.05 | 0.00 | 80 | 1010.1 |
| 20260505232955 | 12 | 321 | 4.8 | 6.4 | 0.00 | 0.05 | 0.00 | 80 | 1010.1 |
| 20260505232455 | 12 | 313 | 4.8 | 12.9 | 0.00 | 0.05 | 0.00 | 80 | 1010.1 |
| 20260505231955 | 12 | 337 | 4.8 | 8.0 | 0.00 | 0.05 | 0.00 | 80 | 1010.2 |
| 20260505231455 | 12 | 311 | 4.8 | 11.3 | 0.00 | 0.05 | 0.00 | 80 | 1010.2 |
| 20260505230955 | 12 | 303 | 4.8 | 12.9 | 0.00 | 0.05 | 0.00 | 80 | 1010.2 |
| 20260505230455 | 12 | 310 | 4.8 | 9.7 | 0.00 | 0.05 | 0.05 | 80 | 1010.2 |
| 20260505225955 | 12 | 310 | 4.8 | 12.9 | 0.00 | 0.05 | 0.05 | 80 | 1010.2 |
| 20260505225455 | 12 | 318 | 4.8 | 11.3 | 0.00 | 0.05 | 0.05 | 80 | 1010.3 |
| 20260505224955 | 12 | 294 | 6.4 | 12.9 | 0.00 | 0.05 | 0.05 | 80 | 1010.3 |
| 20260505224455 | 12 | 307 | 4.8 | 9.7 | 0.00 | 0.05 | 0.05 | 80 | 1010.3 |
| 20260505223955 | 12 | 309 | 3.2 | 8.0 | 0.00 | 0.05 | 0.05 | 80 | 1010.4 |
| 20260505223455 | 12 | 318 | 3.2 | 8.0 | 0.00 | 0.05 | 0.05 | 80 | 1010.3 |
| 20260505222955 | 12 | 8 | 4.8 | 6.4 | 0.00 | 0.05 | 0.05 | 80 | 1010.3 |
| 20260505222455 | 12 | 322 | 4.8 | 11.3 | 0.00 | 0.05 | 0.05 | 80 | 1010.4 |
| 20260505221955 | 12 | 330 | 4.8 | 11.3 | 0.00 | 0.05 | 0.05 | 80 | 1010.4 |
| 20260505221455 | 12 | 4 | 4.8 | 8.0 | 0.00 | 0.05 | 0.05 | 79 | 1010.4 |
| 20260505220955 | 12 | 318 | 4.8 | 9.7 | 0.00 | 0.05 | 0.05 | 79 | 1010.4 |
| 20260505220455 | 13 | 312 | 4.8 | 8.0 | 0.00 | 0.05 | 0.05 | 79 | 1010.5 |
| 20260505215955 | 13 | 335 | 4.8 | 11.3 | 0.00 | 0.05 | 0.05 | 79 | 1010.4 |
| 20260505215455 | 13 | 318 | 4.8 | 9.7 | 0.00 | 0.05 | 0.05 | 79 | 1010.5 |
| 20260505214955 | 13 | 349 | 4.8 | 12.9 | 0.00 | 0.05 | 0.05 | 78 | 1010.6 |
| 20260505214455 | 13 | 338 | 4.8 | 8.0 | 0.00 | 0.05 | 0.05 | 78 | 1010.5 |
| 20260505213955 | 13 | 328 | 4.8 | 9.7 | 0.00 | 0.05 | 0.05 | 77 | 1010.6 |
| 20260505213455 | 13 | 349 | 4.8 | 11.3 | 0.00 | 0.05 | 0.05 | 77 | 1010.6 |
| 20260505212955 | 13 | 331 | 3.2 | 11.3 | 0.00 | 0.05 | 0.05 | 76 | 1010.6 |
| 20260505212455 | 13 | 319 | 4.8 | 8.0 | 0.00 | 0.05 | 0.05 | 76 | 1010.6 |
| 20260505211955 | 13 | 313 | 4.8 | 9.7 | 0.00 | 0.05 | 0.05 | 76 | 1010.7 |
| 20260505211455 | 13 | 308 | 4.8 | 9.7 | 0.00 | 0.05 | 0.05 | 76 | 1010.6 |
| 20260505210955 | 13 | 317 | 3.2 | 8.0 | 0.00 | 0.05 | 0.05 | 76 | 1010.6 |
| 20260505210455 | 13 | 339 | 3.2 | 8.0 | 0.00 | 0.05 | 0.05 | 76 | 1010.6 |
| 20260505205955 | 13 | 318 | 4.8 | 8.0 | 0.00 | 0.05 | 0.05 | 76 | 1010.6 |
| 20260505205455 | 13 | 330 | 4.8 | 8.0 | 0.00 | 0.05 | 0.05 | 75 | 1010.6 |
| 20260505204955 | 13 | 318 | 4.8 | 12.9 | 0.00 | 0.05 | 0.05 | 75 | 1010.7 |
| 20260505204455 | 13 | 339 | 3.2 | 9.7 | 0.00 | 0.05 | 0.05 | 75 | 1010.7 |
| 20260505203955 | 13 | 359 | 3.2 | 6.4 | 0.00 | 0.05 | 0.05 | 75 | 1010.6 |
| 20260505203455 | 13 | 337 | 3.2 | 6.4 | 0.00 | 0.05 | 0.05 | 75 | 1010.6 |
| 20260505202955 | 13 | 354 | 3.2 | 8.0 | 0.00 | 0.05 | 0.05 | 75 | 1010.6 |
| 20260505202455 | 13 | 330 | 4.8 | 6.4 | 0.00 | 0.05 | 0.05 | 74 | 1010.6 |
| 20260505201955 | 13 | 320 | 4.8 | 8.0 | 0.00 | 0.05 | 0.05 | 74 | 1010.5 |
| 20260505201455 | 13 | 4 | 4.8 | 6.4 | 0.00 | 0.05 | 0.05 | 74 | 1010.5 |
| 20260505200955 | 13 | 309 | 4.8 | 9.7 | 0.00 | 0.05 | 0.05 | 74 | 1010.4 |
| 20260505200455 | 13 | 354 | 4.8 | 9.7 | 0.00 | 0.05 | 0.05 | 74 | 1010.4 |
| 20260505195955 | 13 | 4 | 4.8 | 8.0 | 0.00 | 0.05 | 0.05 | 74 | 1010.3 |
| 20260505195455 | 13 | 316 | 4.8 | 9.7 | 0.00 | 0.05 | 0.05 | 73 | 1010.3 |
| 20260505194955 | 13 | 316 | 6.4 | 9.7 | 0.00 | 0.05 | 0.05 | 73 | 1010.2 |
| 20260505194455 | 13 | 318 | 4.8 | 9.7 | 0.00 | 0.05 | 0.05 | 73 | 1010.2 |
| 20260505193955 | 13 | 326 | 4.8 | 8.0 | 0.00 | 0.05 | 0.05 | 73 | 1010.2 |
| 20260505193455 | 13 | 4 | 4.8 | 12.9 | 0.00 | 0.05 | 0.05 | 73 | 1010.1 |
| 20260505192955 | 13 | 4 | 4.8 | 12.9 | 0.00 | 0.05 | 0.05 | 73 | 1010.1 |
| 20260505192455 | 13 | 325 | 4.8 | 12.9 | 0.00 | 0.05 | 0.05 | 73 | 1010.1 |
| 20260505191955 | 13 | 345 | 4.8 | 12.9 | 0.00 | 0.05 | 0.05 | 73 | 1010.1 |
| 20260505191455 | 13 | 354 | 6.4 | 12.9 | 0.00 | 0.05 | 0.05 | 73 | 1010.1 |
| 20260505190955 | 13 | 322 | 6.4 | 17.7 | 0.00 | 0.05 | 0.05 | 73 | 1010.1 |
| 20260505190455 | 13 | 310 | 6.4 | 9.7 | 0.00 | 0.05 | 0.05 | 73 | 1010.1 |
| 20260505185955 | 13 | 318 | 8.0 | 16.1 | 0.00 | 0.05 | 0.05 | 73 | 1010.0 |
| 20260505185456 | 13 | 322 | 9.7 | 17.7 | 0.00 | 0.05 | 0.05 | 73 | 1010.0 |
| 20260505184955 | 13 | 4 | 9.7 | 20.9 | 0.00 | 0.05 | 0.05 | 72 | 1009.9 |
| 20260505184456 | 13 | 317 | 9.7 | 16.1 | 0.00 | 0.05 | 0.05 | 72 | 1009.9 |
| 20260505183956 | 13 | 317 | 9.7 | 17.7 | 0.00 | 0.05 | 0.05 | 72 | 1009.8 |
| 20260505183456 | 13 | 300 | 8.0 | 14.5 | 0.00 | 0.05 | 0.05 | 72 | 1009.8 |
| 20260505182956 | 13 | 336 | 8.0 | 22.5 | 0.00 | 0.05 | 0.05 | 71 | 1009.8 |
| 20260505182456 | 13 | 326 | 6.4 | 11.3 | 0.00 | 0.05 | 0.05 | 71 | 1009.8 |
| 20260505181956 | 13 | 318 | 8.0 | 16.1 | 0.00 | 0.05 | 0.05 | 71 | 1009.7 |
| 20260505181456 | 13 | 322 | 9.7 | 17.7 | 0.00 | 0.05 | 0.05 | 71 | 1009.7 |
| 20260505180956 | 13 | 336 | 11.3 | 22.5 | 0.00 | 0.05 | 0.05 | 71 | 1009.7 |
| 20260505180456 | 13 | 314 | 11.3 | 22.5 | 0.00 | 0.05 | 0.05 | 71 | 1009.7 |
| 20260505175956 | 13 | 341 | 11.3 | 20.9 | 0.00 | 0.05 | 0.05 | 71 | 1009.6 |
| 20260505175456 | 13 | 328 | 12.9 | 24.1 | 0.00 | 0.05 | 0.05 | 71 | 1009.7 |
| 20260505174956 | 13 | 310 | 11.3 | 20.9 | 0.00 | 0.05 | 0.05 | 72 | 1009.8 |
| 20260505174456 | 13 | 314 | 11.3 | 20.9 | 0.00 | 0.05 | 0.05 | 73 | 1009.7 |
| 20260505173956 | 13 | 318 | 9.7 | 20.9 | 0.00 | 0.05 | 0.05 | 74 | 1009.8 |
| 20260505173456 | 13 | 271 | 9.7 | 22.5 | 0.00 | 0.05 | 0.05 | 75 | 1009.7 |
| 20260505172956 | 13 | 318 | 11.3 | 19.3 | 0.00 | 0.05 | 0.05 | 76 | 1009.7 |
| 20260505172456 | 13 | 14 | 11.3 | 29.0 | 0.00 | 0.05 | 0.05 | 76 | 1009.7 |
| 20260505171956 | 13 | 314 | 11.3 | 17.7 | 0.00 | 0.05 | 0.05 | 76 | 1009.7 |
| 20260505171456 | 13 | 14 | 9.7 | 22.5 | 0.00 | 0.05 | 0.05 | 76 | 1009.8 |
| 20260505170956 | 13 | 333 | 11.3 | 22.5 | 0.00 | 0.05 | 0.05 | 75 | 1009.8 |
| 20260505170456 | 13 | 316 | 11.3 | 22.5 | 0.00 | 0.05 | 0.05 | 75 | 1009.9 |
| 20260505165956 | 13 | 328 | 8.0 | 20.9 | 0.00 | 0.05 | 0.05 | 74 | 1009.9 |
| 20260505165456 | 14 | 304 | 8.0 | 17.7 | 0.00 | 0.05 | 0.05 | 73 | 1009.8 |
| 20260505164956 | 14 | 30 | 8.0 | 16.1 | 0.00 | 0.05 | 0.05 | 72 | 1009.9 |
| 20260505164456 | 14 | 348 | 8.0 | 20.9 | 0.00 | 0.05 | 0.05 | 71 | 1009.8 |
| 20260505163956 | 14 | 4 | 9.7 | 17.7 | 0.00 | 0.05 | 0.05 | 72 | 1009.8 |
| 20260505163456 | 14 | 312 | 11.3 | 20.9 | 0.00 | 0.05 | 0.05 | 72 | 1009.8 |
| 20260505162956 | 14 | 348 | 12.9 | 20.9 | 0.00 | 0.05 | 0.05 | 72 | 1009.8 |
| 20260505162456 | 14 | 25 | 12.9 | 24.1 | 0.00 | 0.05 | 0.05 | 72 | 1009.7 |
| 20260505161956 | 13 | 4 | 11.3 | 24.1 | 0.00 | 0.05 | 0.05 | 71 | 1009.7 |
| 20260505161456 | 14 | 9 | 9.7 | 16.1 | 0.00 | 0.05 | 0.05 | 72 | 1009.6 |
| 20260505160956 | 14 | 13 | 9.7 | 20.9 | 0.00 | 0.05 | 0.05 | 72 | 1009.7 |
| 20260505160456 | 14 | 359 | 11.3 | 17.7 | 0.00 | 0.05 | 0.05 | 72 | 1009.6 |
| 20260505152956 | 14 | 319 | 12.9 | 24.1 | 0.00 | 0.05 | 0.05 | 72 | 1009.7 |
| 20260505152456 | 14 | 12 | 11.3 | 19.3 | 0.00 | 0.05 | 0.05 | 73 | 1009.7 |
| 20260505151956 | 14 | 24 | 12.9 | 20.9 | 0.00 | 0.05 | 0.05 | 73 | 1009.7 |
| 20260505151456 | 14 | 18 | 12.9 | 24.1 | 0.00 | 0.05 | 0.05 | 74 | 1009.8 |
| 20260505150956 | 14 | 9 | 12.9 | 22.5 | 0.00 | 0.05 | 0.05 | 74 | 1009.7 |
| 20260505150456 | 14 | 341 | 12.9 | 24.1 | 0.00 | 0.05 | 0.05 | 74 | 1009.8 |
| 20260505140456 | 13 | 344 | 16.1 | 29.0 | 0.00 | 0.05 | 0.05 | 78 | 1009.8 |
| 20260505124956 | 13 | 324 | 9.7 | 17.7 | 0.00 | 0.05 | 0.05 | 81 | 1010.1 |
| 20260505124456 | 13 | 54 | 11.3 | 24.1 | 0.00 | 0.05 | 0.05 | 81 | 1010.1 |
| 20260505123956 | 13 | 31 | 9.7 | 20.9 | 0.00 | 0.05 | 0.05 | 82 | 1010.1 |
| 20260505123456 | 13 | 359 | 8.0 | 14.5 | 0.03 | 0.05 | 0.05 | 83 | 1010.0 |
| 20260505122956 | 13 | 27 | 8.0 | 16.1 | 0.03 | 0.05 | 0.05 | 83 | 1010.0 |
| 20260505122456 | 12 | 13 | 6.4 | 16.1 | 0.03 | 0.05 | 0.05 | 83 | 1010.0 |
| 20260505121956 | 12 | 321 | 8.0 | 17.7 | 0.03 | 0.05 | 0.05 | 83 | 1010.1 |
| 20260505121456 | 12 | 4 | 8.0 | 19.3 | 0.03 | 0.05 | 0.05 | 83 | 1010.0 |
| 20260505120956 | 12 | 330 | 6.4 | 16.1 | 0.03 | 0.05 | 0.05 | 83 | 1010.1 |
| 20260505120456 | 12 | 27 | 8.0 | 14.5 | 0.03 | 0.05 | 0.05 | 83 | 1010.1 |
| 20260505115956 | 12 | 16 | 8.0 | 14.5 | 0.03 | 0.05 | 0.05 | 83 | 1010.2 |
| 20260505115456 | 13 | 23 | 8.0 | 17.7 | 0.03 | 0.05 | 0.05 | 83 | 1010.2 |
| 20260505114956 | 13 | 33 | 8.0 | 17.7 | 0.03 | 0.05 | 0.05 | 83 | 1010.2 |
| 20260505114456 | 13 | 347 | 4.8 | 16.1 | 0.03 | 0.05 | 0.05 | 83 | 1010.2 |
| 20260505113956 | 13 | 27 | 4.8 | 12.9 | 0.03 | 0.05 | 0.05 | 83 | 1010.2 |
| 20260505113456 | 13 | 50 | 4.8 | 11.3 | 0.00 | 0.03 | 0.03 | 82 | 1010.2 |
| 20260505112956 | 13 | 36 | 4.8 | 12.9 | 0.00 | 0.03 | 0.03 | 82 | 1010.3 |
| 20260505112456 | 13 | 55 | 4.8 | 9.7 | 0.00 | 0.03 | 0.03 | 82 | 1010.3 |
| 20260505111956 | 13 | 73 | 6.4 | 11.3 | 0.00 | 0.03 | 0.03 | 82 | 1010.3 |
| 20260505111456 | 13 | 60 | 6.4 | 16.1 | 0.00 | 0.03 | 0.03 | 81 | 1010.3 |
| 20260505110956 | 13 | 33 | 6.4 | 14.5 | 0.00 | 0.03 | 0.03 | 81 | 1010.3 |
| 20260505110456 | 13 | 16 | 6.4 | 14.5 | 0.00 | 0.03 | 0.03 | 81 | 1010.4 |
| 20260505110243 | 13 | 26 | 1.6 | 4.8 | 0.00 | 0.00 | 0.00 | 80 | 1012.0 |
| 20260505101956 | 13 | 359 | 8.0 | 16.1 | 0.00 | 0.03 | 0.03 | 78 | 1010.3 |
| 20260505101456 | 13 | 354 | 8.0 | 14.5 | 0.00 | 0.03 | 0.03 | 78 | 1010.3 |
| 20260505100956 | 13 | 10 | 4.8 | 14.5 | 0.00 | 0.03 | 0.03 | 79 | 1010.2 |
| 20260505100457 | 13 | 54 | 4.8 | 11.3 | 0.00 | 0.03 | 0.03 | 79 | 1010.2 |
| 20260505095956 | 13 | 25 | 6.4 | 12.9 | 0.00 | 0.03 | 0.03 | 80 | 1010.3 |
| 20260505095456 | 13 | 346 | 9.7 | 17.7 | 0.00 | 0.03 | 0.03 | 79 | 1010.3 |
| 20260505094956 | 13 | 31 | 8.0 | 17.7 | 0.00 | 0.03 | 0.03 | 80 | 1010.2 |
| 20260505094456 | 13 | 354 | 8.0 | 16.1 | 0.00 | 0.03 | 0.03 | 80 | 1010.2 |
| 20260505093956 | 13 | 14 | 8.0 | 16.1 | 0.00 | 0.03 | 0.03 | 81 | 1010.2 |
| 20260505093456 | 13 | 16 | 9.7 | 16.1 | 0.00 | 0.03 | 0.03 | 81 | 1010.2 |
| 20260505092956 | 13 | 49 | 9.7 | 17.7 | 0.00 | 0.03 | 0.03 | 81 | 1010.2 |
| 20260505092456 | 13 | 15 | 8.0 | 17.7 | 0.00 | 0.03 | 0.03 | 82 | 1010.2 |
| 20260505091956 | 13 | 20 | 6.4 | 14.5 | 0.00 | 0.03 | 0.03 | 82 | 1010.1 |
| 20260505091456 | 13 | 16 | 4.8 | 9.7 | 0.00 | 0.03 | 0.03 | 82 | 1010.1 |
| 20260505090956 | 13 | 33 | 6.4 | 16.1 | 0.00 | 0.03 | 0.03 | 82 | 1010.1 |
| 20260505090456 | 13 | 359 | 8.0 | 16.1 | 0.00 | 0.03 | 0.03 | 82 | 1010.1 |
| 20260505085956 | 13 | 18 | 11.3 | 19.3 | 0.00 | 0.03 | 0.03 | 82 | 1010.1 |
| 20260505085457 | 13 | 51 | 9.7 | 17.7 | 0.00 | 0.03 | 0.03 | 82 | 1010.0 |
| 20260505084956 | 13 | 50 | 9.7 | 19.3 | 0.00 | 0.03 | 0.03 | 82 | 1010.1 |
| 20260505084457 | 13 | 8 | 9.7 | 19.3 | 0.00 | 0.03 | 0.03 | 82 | 1010.2 |
| 20260505083957 | 13 | 359 | 11.3 | 20.9 | 0.00 | 0.03 | 0.03 | 83 | 1010.2 |
| 20260505083457 | 12 | 4 | 9.7 | 20.9 | 0.00 | 0.03 | 0.03 | 83 | 1010.2 |
| 20260505082957 | 12 | 42 | 8.0 | 14.5 | 0.00 | 0.03 | 0.03 | 83 | 1010.1 |
| 20260505082457 | 12 | 17 | 8.0 | 16.1 | 0.00 | 0.03 | 0.03 | 84 | 1010.0 |
| 20260505081957 | 12 | 337 | 8.0 | 12.9 | 0.00 | 0.03 | 0.03 | 84 | 1010.1 |
| 20260505081457 | 12 | 330 | 9.7 | 22.5 | 0.00 | 0.03 | 0.03 | 84 | 1010.1 |
| 20260505080957 | 12 | 359 | 9.7 | 20.9 | 0.00 | 0.03 | 0.03 | 84 | 1010.1 |
| 20260505080457 | 12 | 18 | 8.0 | 19.3 | 0.00 | 0.03 | 0.03 | 84 | 1010.1 |
| 20260505075957 | 12 | 312 | 6.4 | 16.1 | 0.00 | 0.03 | 0.03 | 84 | 1010.2 |
| 20260505075457 | 12 | 4 | 8.0 | 14.5 | 0.00 | 0.03 | 0.03 | 84 | 1010.2 |
| 20260505074957 | 12 | 19 | 6.4 | 16.1 | 0.00 | 0.03 | 0.03 | 84 | 1010.1 |
| 20260505074457 | 12 | 15 | 8.0 | 16.1 | 0.00 | 0.03 | 0.03 | 84 | 1010.1 |
| 20260505073957 | 12 | 18 | 8.0 | 22.5 | 0.00 | 0.03 | 0.03 | 84 | 1010.1 |
| 20260505073457 | 12 | 359 | 6.4 | 11.3 | 0.00 | 0.03 | 0.03 | 84 | 1010.0 |
| 20260505072957 | 12 | 28 | 6.4 | 16.1 | 0.00 | 0.03 | 0.03 | 84 | 1010.0 |
| 20260505072457 | 12 | 359 | 6.4 | 9.7 | 0.00 | 0.03 | 0.03 | 84 | 1010.0 |
| 20260505071957 | 12 | 41 | 6.4 | 16.1 | 0.00 | 0.03 | 0.03 | 84 | 1010.1 |
| 20260505071457 | 12 | 13 | 8.0 | 14.5 | 0.00 | 0.03 | 0.03 | 84 | 1010.2 |
| 20260505070957 | 12 | 29 | 8.0 | 16.1 | 0.00 | 0.03 | 0.03 | 85 | 1010.2 |
| 20260505070457 | 12 | 66 | 8.0 | 12.9 | 0.00 | 0.03 | 0.03 | 85 | 1010.2 |
| 20260505065957 | 12 | 39 | 8.0 | 16.1 | 0.00 | 0.03 | 0.03 | 85 | 1010.1 |
| 20260505065457 | 12 | 15 | 9.7 | 17.7 | 0.00 | 0.03 | 0.03 | 85 | 1010.2 |
| 20260505064957 | 12 | 56 | 11.3 | 19.3 | 0.00 | 0.03 | 0.03 | 85 | 1010.2 |
| 20260505064457 | 12 | 13 | 11.3 | 16.1 | 0.00 | 0.03 | 0.03 | 85 | 1010.1 |
| 20260505063957 | 12 | 21 | 9.7 | 20.9 | 0.00 | 0.03 | 0.03 | 85 | 1010.1 |
| 20260505063457 | 12 | 14 | 8.0 | 17.7 | 0.00 | 0.03 | 0.03 | 86 | 1010.1 |
| 20260505062957 | 12 | 21 | 8.0 | 14.5 | 0.00 | 0.03 | 0.03 | 86 | 1010.1 |
| 20260505062457 | 12 | 21 | 9.7 | 19.3 | 0.00 | 0.03 | 0.03 | 86 | 1010.1 |
| 20260505061957 | 12 | 14 | 9.7 | 19.3 | 0.00 | 0.03 | 0.03 | 86 | 1010.1 |
| 20260505061457 | 12 | 4 | 9.7 | 17.7 | 0.00 | 0.03 | 0.03 | 86 | 1010.1 |
| 20260505060957 | 12 | 16 | 9.7 | 20.9 | 0.00 | 0.03 | 0.03 | 86 | 1010.0 |
| 20260505060457 | 12 | 37 | 9.7 | 20.9 | 0.00 | 0.03 | 0.03 | 86 | 1010.0 |
| 20260505055957 | 12 | 34 | 9.7 | 14.5 | 0.00 | 0.03 | 0.03 | 86 | 1010.0 |
| 20260505055457 | 12 | 8 | 11.3 | 20.9 | 0.00 | 0.03 | 0.03 | 86 | 1010.1 |
| 20260505054957 | 12 | 45 | 8.0 | 17.7 | 0.00 | 0.03 | 0.03 | 86 | 1010.1 |
| 20260505054457 | 12 | 359 | 6.4 | 19.3 | 0.00 | 0.03 | 0.03 | 86 | 1010.1 |
| 20260505053957 | 12 | 343 | 4.8 | 11.3 | 0.00 | 0.03 | 0.03 | 87 | 1010.1 |
| 20260505053457 | 12 | 14 | 4.8 | 11.3 | 0.00 | 0.03 | 0.03 | 87 | 1010.1 |
| 20260505052957 | 12 | 27 | 4.8 | 14.5 | 0.00 | 0.03 | 0.03 | 87 | 1010.1 |
| 20260505052457 | 12 | 27 | 4.8 | 9.7 | 0.00 | 0.03 | 0.03 | 87 | 1010.1 |
| 20260505051957 | 12 | 10 | 6.4 | 12.9 | 0.00 | 0.03 | 0.03 | 87 | 1010.0 |
| 20260505051457 | 12 | 81 | 6.4 | 14.5 | 0.00 | 0.03 | 0.03 | 87 | 1010.0 |
| 20260505050957 | 12 | 10 | 6.4 | 12.9 | 0.00 | 0.03 | 0.03 | 87 | 1010.0 |
| 20260505050457 | 12 | 20 | 8.0 | 16.1 | 0.00 | 0.03 | 0.03 | 87 | 1010.1 |
| 20260505041457 | 12 | 25 | 6.4 | 19.3 | 0.03 | 0.03 | 0.03 | 87 | 1010.1 |
| 20260505040957 | 12 | 27 | 4.8 | 12.9 | 0.03 | 0.03 | 0.03 | 86 | 1010.2 |
| 20260505040457 | 12 | 37 | 4.8 | 12.9 | 0.03 | 0.03 | 0.03 | 87 | 1010.2 |
| 20260505035957 | 12 | 29 | 6.4 | 11.3 | 0.03 | 0.03 | 0.03 | 86 | 1010.2 |
| 20260505035457 | 12 | 27 | 8.0 | 20.9 | 0.03 | 0.03 | 0.03 | 86 | 1010.3 |
| 20260505034957 | 12 | 60 | 6.4 | 16.1 | 0.03 | 0.03 | 0.03 | 86 | 1010.3 |
| 20260505034457 | 12 | 71 | 6.4 | 14.5 | 0.03 | 0.03 | 0.03 | 86 | 1010.3 |
| 20260505033957 | 12 | 48 | 6.4 | 19.3 | 0.03 | 0.03 | 0.03 | 86 | 1010.3 |
| 20260505033457 | 12 | 14 | 6.4 | 17.7 | 0.03 | 0.03 | 0.03 | 86 | 1010.3 |
| 20260505032957 | 12 | 30 | 6.4 | 14.5 | 0.03 | 0.03 | 0.03 | 86 | 1010.2 |
| 20260505032457 | 12 | 50 | 8.0 | 14.5 | 0.03 | 0.03 | 0.03 | 86 | 1010.2 |